Flag for Germany Weather past 2 weeks in Alsdorf, North Rhine-Westphalia, Germany

Now
63 °F

Mild.


Feels Like: 63 °F
Forecast: 59 / 73 °F
Wind: 5 mph from Southeast

Location: Maastricht Airport Zuid Limburg

Current Time: Aug 2, 2014 at 2:46:08 AM

Latest Report: Aug 2, 2014 at 1:55 AM


Visibility: N/A

Pressure: 29.77 "Hg

Humidity: 88%

Dew point: 59 °F

Location of AlsdorfLocation

Historic Weather in Alsdorf — Graph

°F

Alsdorf temperature yesterday

Maximum temperature yesterday: 81 °F (at 4:25 PM)
Minimum temperature yesterday: 59 °F (at 5:25 AM)
Average temperature yesterday: 70 °F

Past Weeks' High & Low Weather Summary

 TemperatureHumidityPressure
High91 °F (Jul 18, 4:25 PM)100% (Jul 21, 2:25 AM)30.09 "Hg (Jul 21, 2:25 AM)
Low52 °F (Jul 31, 5:25 AM)26% (Jul 18, 5:55 PM)29.77 "Hg (Jul 19, 9:55 PM)
Average70 °F77%29.93 "Hg
* Reported Jul 18 1:25 AM — Aug 2 1:55 AM, Alsdorf, Weather by CustomWeather, © 2014

Note: Actual official high and low records may vary slightly from our data, if they occured in-between our weather recording intervals... More about our weather records

Advertising

Alsdorf weather history for previous 24 hours

 ConditionsComfort  
Time TempWeatherWind HumidityBarometerVisibility
1:55 AM
Aug 2
63 °FMild.5 mph88%29.77 "HgN/A
1:25 AM64 °FMild.2 mph83%29.77 "HgN/A
12:55 AM66 °FMild.3 mph78%29.77 "HgN/A
12:25 AM66 °FMild.3 mph78%29.77 "HgN/A
11:55 PM
Aug 1
68 °FMild.3 mph73%29.77 "HgN/A
11:25 PM66 °FMild.3 mph78%29.77 "HgN/A
10:55 PM68 °FMild.5 mph73%29.77 "HgN/A
10:25 PM68 °FMild.3 mph78%29.77 "HgN/A
9:55 PM72 °FMild.5 mph65%29.77 "HgN/A
9:25 PM73 °FClear.6 mph61%29.77 "HgN/A
8:55 PM75 °FClear.6 mph57%29.77 "HgN/A
8:25 PM75 °FClear.6 mph57%29.77 "HgN/A
7:55 PM77 °FClear.6 mph54%29.77 "HgN/A
7:25 PM79 °FWarm.6 mph48%29.77 "HgN/A
6:55 PM77 °FClear.6 mph51%29.80 "HgN/A
6:25 PM79 °FClear.7 mph45%29.80 "HgN/A
5:55 PM79 °FClear.7 mph48%29.80 "HgN/A
5:25 PM81 °FClear.6 mph42%29.80 "HgN/A
4:55 PM81 °FClear.3 mph45%29.80 "HgN/A
4:25 PM81 °FWarm.2 mph45%29.80 "HgN/A
3:55 PM79 °FClear.3 mph48%29.83 "HgN/A
3:25 PM79 °FClear.6 mph48%29.83 "HgN/A
2:55 PM77 °FClear.2 mph51%29.83 "HgN/A
2:25 PM77 °FClear.5 mph47%29.83 "HgN/A
1:55 PM79 °FScattered clouds.7 mph51%29.83 "HgN/A
1:25 PM77 °FWarm.6 mph51%29.86 "HgN/A
12:55 PM77 °FScattered clouds.6 mph57%29.86 "HgN/A
12:25 PM75 °FMild.5 mph57%29.86 "HgN/A
11:55 AM73 °FMild.6 mph65%29.86 "HgN/A
11:25 AM72 °FMild.6 mph69%29.86 "HgN/A
10:55 AM72 °FClear.7 mph69%29.89 "HgN/A
10:25 AM72 °FClear.7 mph69%29.89 "HgN/A
9:55 AM70 °FMild.3 mph69%29.86 "HgN/A
9:25 AM68 °FMild.3 mph73%29.89 "HgN/A
8:55 AM64 °FMild.6 mph88%29.86 "HgN/A
8:25 AM64 °FMild.6 mph83%29.89 "HgN/A
7:55 AM63 °FMild.7 mph88%29.86 "HgN/A
7:25 AM59 °FCool.6 mph94%29.89 "HgN/A
6:55 AM59 °FCool.5 mph94%29.89 "HgN/A
6:25 AM59 °FCool.7 mph94%29.89 "HgN/A
5:55 AM61 °FCool.6 mph88%29.89 "HgN/A
5:25 AM59 °FCool.7 mph94%29.89 "HgN/A
4:55 AM61 °FCool.6 mph88%29.89 "HgN/A
4:25 AM61 °FClear.6 mph88%29.89 "HgN/A
3:55 AM61 °FCool.5 mph88%29.89 "HgN/A
3:25 AM61 °FClear.5 mph88%29.89 "HgN/A
2:55 AM63 °FMild.3 mph83%29.89 "HgN/A
2:25 AM63 °FClear.3 mph83%29.89 "HgN/A
Weather by CustomWeather, © 2014

See weather overviewHow to use our weather pages